www.pogodaiklimat.ru

Погода и климат >> Архив погоды >> Индия >> Харьяна >> Амбала


ПОГОДА в Амбале

  • Прогноз погоды в Амбале
  • Монитор погоды в Амбале

АРХИВ ПОГОДЫ в Амбале

Время (UTC), дата Ветер
(напр.,м/с)
 
Видим.   Явления Облачность Т
(С)
Тd
(С)
f
(%)
Тe
(С)
Тes
(С)
Комфортность P
(гПа)
Po
(гПа)
Тmin
(С)
Tmax
(С)
R
(мм)
R24
(мм)
S
(см)
15 13.07 штиль 0 4000 м ясно +29.0 +25.3 80 +42 +42 опасность
перегрева
996.9 966.7 12
18 13.07 штиль 0 4000 м ясно +28.2 +25.1 83 +41 +41 опасность
перегрева
998.4 968.1 12
21 13.07 штиль 0 4000 м 9/4 900 м
[Sc Ac trans]
+28.4 +26.2 88 +43 +43 опасность
перегрева
996.2 966.0 12
00 14.07 штиль 0 4000 м гроза, ливневой дождь 10/8 750 м
[Cb cap As op]
+24.0 +23.6 98 +33 +33 очень
душно
997.2 966.5 27
03 14.07 В 1 4000 м в посл. час дождь {гроза} 10/6 750 м
[Sc As op]
+24.0 +23.4 96 +32 +33 очень
душно
998.3 967.6 +20.7 +32.6 32
06 14.07 штиль 0 4000 м гроза, ливневой дождь 10/6 750 м
[Cb cap As op]
+26.4 +25.4 94 +38 +41 очень
душно
999.5 969.0 6
09 14.07 ЮВ 2 4000 м {гроза, дождь} 10/6 750 м
[Cu Sc As op]
+26.6 +23.4 83 +36 +37 очень
душно
997.5 967.0 14
12 14.07 СВ 2 2000 м гроза, ливневой дождь 10/8 600 м
[Cb cap As op]
+22.8 +22.5 98 +31 +31 очень
душно
998.0 967.1 +27.2 38
15 14.07 штиль 0 2000 м гроза, ливневой дождь 10/8 750 м
[Cb cap As op]
+23.6 +23.3 98 +32 +32 очень
душно
998.3 967.5 115
18 14.07 ЮВ 1 4000 м {гроза, дождь} 8/5 900 м
[Sc Ac trans]
+23.6 +23.2 98 +32 +32 очень
душно
998.7 967.9 115
21 14.07 ЮВ 1 2000 м гроза, ливневой дождь 10/8 750 м
[Cb cap As op]
+23.4 +23.1 98 +33 +33 очень
душно
996.7 965.9 127
00 15.07 ЮВ 1 4000 м в посл. час дождь {гроза} 10/6 750 м
[Sc As op]
+23.6 +23.3 98 +32 +32 очень
душно
996.1 965.4 127
03 15.07 В 2 4000 м гроза без осадков 9/6 750 м
[Cb cap Ac trans]
+24.8 +24.2 96 +34 +36 очень
душно
997.2 966.6 +20.5 +27.2 12
06 15.07 ЮВ 2 4000 м {гроза, дождь} 8/5 750 м
[Cu Sc Ac trans]
+28.4 +24.1 78 +40 +47 очень
душно
998.0 967.7 0.8
09 15.07 ЮВ 2 4000 м {дождь} 9/6 750 м
[Sc As op]
+28.2 +24.5 80 +40 +43 очень
душно
996.6 966.3 0.9
12 15.07 штиль 0 4000 м {дождь} 9/5 750 м
[Cu Sc Ac trans]
+28.4 +25.9 86 +42 +43 опасность
перегрева
996.7 966.4 +28.9 0.9
18 15.07 штиль 0 2000 м гроза, ливневой дождь 10/8 600 м
[Cb cap As op]
+25.2 +23.7 91 +34 +34 очень
душно
1000.2 969.5 10
00 16.07 ЮВ 1 4000 м дождь {гроза} 10/8 600 м
[Sc As op]
+23.6 +23.3 98 +32 +32 очень
душно
999.1 968.3 33
03 16.07 ЮВ 1 4000 м слаб. дождь 10/8 600 м
[Sc As op]
+23.6 +23.3 98 +32 +32 очень
душно
1000.8 969.9 +21.2 +28.9 34
06 16.07 штиль 0 4000 м в посл. час дождь 10/8 750 м
[Sc As op]
+24.6 +23.5 94 +33 +34 очень
душно
1002.9 972.1 0.4
12 16.07 ЮВ 1 4000 м {дождь} 6/0
[Ac trans]
+27.2 +24.1 83 +38 +40 очень
душно
1001.2 970.7 +27.8 0.4
15 16.07 штиль 0 4000 м 5/0
[Ac trans]
+25.6 +23.9 90 +35 +35 очень
душно
1002.2 971.5 0.4
18 16.07 ЮВ 1 4000 м 8/3 900 м
[Sc Ac trans]
+25.2 +24.1 94 +35 +35 очень
душно
1002.6 971.8 0.4
21 16.07 штиль 0 4000 м 8/3 900 м
[Sc Ac trans]
+25.2 +24.2 94 +35 +35 очень
душно
1001.9 971.2 0.4
00 17.07 ЮВ 1 4000 м слаб. дождь 10/6 750 м
[Sc As op]
+24.0 +23.1 95 +32 +32 очень
душно
1002.1 971.2 2
03 17.07 штиль 0 4000 м в посл. час дождь 9/5 750 м
[Sc Ac trans]
+25.2 +24.3 95 +35 +38 очень
душно
1002.8 972.0 +21.5 +27.8 2
06 17.07 ЮВ 1 4000 м {дождь} 9/5 750 м
[Sc Ac trans]
+28.2 +24.2 79 +39 +46 очень
душно
1002.7 972.2
09 17.07 ЮВ 1 4000 м 5/0
[Ac trans]
+30.6 +24.7 71 +43 +57 опасность
перегрева
1001.7 971.5
12 17.07 штиль 0 4000 м 5/0
[Ac trans]
+30.8 +24.2 68 +43 +46 опасность
перегрева
1000.1 970.0 +31.6
15 17.07 ЮВ 1 4000 м 5/3 900 м
[Sc Ac trans]
+27.8 +24.6 83 +39 +39 очень
душно
1000.3 969.9
18 17.07 штиль 0 4000 м 4/1 900 м
[Sc Ac trans]
+26.8 +24.2 86 +37 +37 очень
душно
1001.3 970.7
21 17.07 штиль 0 4000 м 6/3 900 м
[Sc Ac trans]
+26.6 +24.9 90 +38 +38 очень
душно
1001.5 970.9
00 18.07 штиль 0 4000 м 5/0
[Ac trans]
+26.2 +24.5 90 +37 +37 очень
душно
1001.1 970.5
03 18.07 ЮВ 1 4000 м 10/5 900 м
[Sc Ac trans]
+27.4 +25.5 89 +40 +42 очень
душно
1002.4 971.9 +23.8 +31.6
06 18.07 ЮВ 1 4000 м 9/4 900 м
[Sc Ac trans]
+30.4 +25.7 76 +45 +52 опасность
перегрева
1002.8 972.6
09 18.07 ЮВ 2 4000 м 8/8 750 м
[Cu Sc]
+30.8 +24.6 70 +44 +47 опасность
перегрева
1000.8 970.7
12 18.07 ЮВ 1 4000 м 8/5 750 м
[Sc Ac trans]
+31.8 +25.6 70 +47 +48 опасность
перегрева
999.3 969.3 +25.0 +32.8
15 18.07 штиль 0 4000 м 5/0
[Ac trans]
+29.6 +26.0 81 +44 +44 опасность
перегрева
1000.1 969.9
18 18.07 ЮВ 1 4000 м 3/0
[Ac trans]
+28.8 +26.3 86 +44 +44 опасность
перегрева
1001.2 970.8
21 18.07 штиль 0 4000 м 6/0
[Ac trans]
+28.0 +26.1 89 +42 +42 опасность
перегрева
1001.6 971.2
00 19.07 ЮВ 1 4000 м 9/4 900 м
[Sc Ac trans]
+27.4 +26.0 92 +41 +41 опасность
перегрева
1001.8 971.3
03 19.07 ЮВ 1 2000 м мгла 8/5 750 м
[Sc Ac trans]
+29.0 +25.6 82 +43 +46 опасность
перегрева
1002.5 972.1 +24.9 +32.8
06 19.07 ЮВ 2 2000 м слаб. дождь 10/8 750 м
[Sc As op]
+30.2 +25.4 76 +44 +45 опасность
перегрева
1003.3 973.0 0.0
09 19.07 В 1 4000 м {дождь} 8/3 900 м
[Sc Ac trans]
+31.6 +26.0 72 +47 +55 опасность
перегрева
1001.7 971.6 0.2
12 19.07 В 1 4000 м {дождь} 5/1 900 м
[Sc Ac trans]
+32.4 +26.3 70 +49 +51 опасность
перегрева
999.9 969.9 +33.8 0.2
15 19.07 штиль 0 4000 м 5/0
[Ac trans]
+30.6 +26.2 77 +46 +46 опасность
перегрева
1000.9 970.7 0.2
18 19.07 штиль 0 4000 м 3/0
[Ac trans]
+29.8 +27.3 86 +47 +47 опасность
перегрева
1002.0 971.7 0.2
21 19.07 штиль 0 4000 м 8/3 900 м
[Sc Ac trans]
+29.0 +27.1 90 +46 +46 опасность
перегрева
1002.5 972.1 0.2
00 20.07 штиль 0 4000 м 9/4 900 м
[Sc Ac trans]
+28.8 +27.2 91 +46 +46 опасность
перегрева
1002.7 972.3 0.2
03 20.07 штиль 0 2000 м мгла 10/3 900 м
[Sc As op]
+29.4 +26.9 86 +46 +47 опасность
перегрева
1003.3 972.9 +26.3 +33.8 0.2
06 20.07 В 1 2000 м слаб. дождь 10/8 750 м
[Sc As op]
+27.0 +25.6 92 +40 +41 очень
душно
1004.7 974.1 1
12 20.07 Ю 1 2000 м мгла {дождь} 5/0
[Ac trans]
+33.8 +26.3 65 +50 +53 опасность
перегрева
1000.5 970.7 +34.7 1

 

Местоположение метеостанции Амбала (Харьяна, Индия): широта 30.37 долгота 76.75 высота над уровнем моря 272 м.

В архиве по умолчанию представлена погода в Амбале за последнюю неделю. Архивные данные за месяц целиком и за предыдущие месяцы, начиная с января 2011 года, Вы можете получить, выбрав интересующий диапазон дат из раскрывающегося списка и нажав кнопку "Ввод!".


*Определитесь, кто Вы:
робот инопланетянин человек

Внимание! Время в таблицах - всемирное. Для получения местного времени необходимо прибавить поправку, которая равна 5.5 ч.

Смотрите также архив погоды в соседних городах и на ближайших метеорологических станциях:

Погода в Патиале (Пенджаб, Индия) (27 км)
Погода в Чандигархе (Чандигарх, Индия) (35 км)
Погода в Карнале (Харьяна, Индия) (79 км)
Погода в Шимле (Химачал-Прадеш, Индия) (91 км)
Погода в Лудхиане (Пенджаб, Индия) (96 км)
Погода в Дехрадуне (Уттаракханд, Индия) (123 км)
Погода в Сундернагаре (Химачал-Прадеш, Индия) (130 км)
Погода в Уне (Химачал-Прадеш, Индия) (131 км)
Погода в Хисаре (Харьяна, Индия) (166 км)
Погода в Нью-Тихри (Уттаракханд, Индия) (166 км)

Пояснения к столбцам:

Ветер - указаны скорость ветра в м/с - средняя за 10 мин, порывы в срок и между сроками (в фигурных скобках) и направление, откуда дует ветер: С - северный, СВ - северо-восточный, В - восточный, ЮВ - юго-восточный, Ю - южный, ЮЗ - юго-западный, З - западный, СЗ - северо-западный.
Видимость - горизонтальная дальность видимости в метрах или километрах. При видимости от 1 до 10 км при отсутствии осадков обычно наблюдается дымка, при ухудшении видимости до 1 км и менее - туман. В сухую погоду видимость может ухудшаться дымом, пылью или мглою.
Явления - указаны атмосферные явления, наблюдавшиеся в срок или в последний час перед сроком; фигурными скобками обозначены явления, наблюдавшиеся между сроками (за 1-3 часа до срока); квадратными скобками обозначены град или гололедные отложения с указанием их диаметра в мм.
Облачность - указаны через наклонную черту общая и нижняя облачность в баллах и высота нижней границы облаков в метрах; квадратными скобками обозначены формы облаков: Ci - перистые, Cs - перисто-слоистые, Cc - перисто-кучевые, Ac - высококучевые, As - высокослоистые, Sc - слоисто-кучевые, Ns - слоисто-дождевые, Cu - кучевые, Cb - кучево-дождевые. Подробнее классификацию облаков см. в Атласе облаков (PDF).
T - Температура воздуха - температура, измеренная на высоте 2 м над землей.
Td - Температура точки росы - температура, при понижении до которой содержащийся в воздухе водяной пар достигнет насыщения.
f - Относительная влажность воздуха - влажноcть воздуха, измеренная на высоте 2 м над землей.
Te - Эффективная температура - температура, которую ощущает одетый по сезону человек в тени. Характеристика душности погоды. При расчете учитывается влияние влажности воздуха и скорости ветра на теплоощущения человека.
Tes - Эффективная температура на солнце - температура, которую ощущает человек, с поправкой на солнечный нагрев. Характеристика знойности погоды. Зависит от высоты солнца над горизонтом, облачности и скорости ветра. Ночью, в пасмурную погоду, а также при ветре 12 м/с и более поправка равна нулю.
P - Атмосферное давление - приведенное к уровню моря атмосферное давление.
Po - Атмосферное давление - измеренное на уровне метеостанции атмосферное давление.
Tmin - Минимальная температура - минимум температуры воздуха на высоте 2 м над землей.
Tmax - Максимальная температура - максимум температуры воздуха на высоте 2 м над землей.
R - Количество осадков - Количество выпавших осадков за период времени, мм. При наведении курсора мыши на число - период времени, за который выпало указанное количество осадков.
R24 - Количество осадков - Количество выпавших осадков за 24 часа, мм.
S - Снежный покров - Высота снежного покрова, см. При наведении курсора мыши на число - состояние снежного покрова и степень покрытия местности в баллах.